| time (UTC) | temp F | wind direction | speed MPH | gust MPH | rain 1hr in | rain 24hr in | rain mn in | humidity % | barometer mb |
| 20260504212003 | 84 | 132 | 5.0 | 11.0 | 0.00 | 0.00 | 0.00 | 57 | 1006.4 |
| 20260504211503 | 85 | 139 | 5.0 | 13.0 | 0.00 | 0.00 | 0.00 | 56 | 1006.5 |
| 20260504211003 | 85 | 139 | 5.0 | 13.0 | 0.00 | 0.00 | 0.00 | 55 | 1006.4 |
| 20260504210503 | 84 | 131 | 7.0 | 16.0 | 0.00 | 0.00 | 0.00 | 58 | 1006.4 |
| 20260504210003 | 84 | 132 | 8.0 | 16.0 | 0.00 | 0.00 | 0.00 | 57 | 1006.6 |
| 20260504205503 | 84 | 134 | 7.0 | 17.0 | 0.00 | 0.00 | 0.00 | 57 | 1006.6 |
| 20260504205003 | 84 | 132 | 7.0 | 17.0 | 0.00 | 0.00 | 0.00 | 57 | 1006.8 |
| 20260504204503 | 83 | 130 | 7.0 | 14.0 | 0.00 | 0.00 | 0.00 | 57 | 1006.8 |
| 20260504204003 | 84 | 128 | 7.0 | 15.0 | 0.00 | 0.00 | 0.00 | 57 | 1007.0 |
| 20260504203503 | 84 | 125 | 6.0 | 15.0 | 0.00 | 0.00 | 0.00 | 56 | 1007.0 |
| 20260504203003 | 84 | 127 | 6.0 | 18.0 | 0.00 | 0.00 | 0.00 | 58 | 1007.1 |
| 20260504202503 | 83 | 134 | 7.0 | 18.0 | 0.00 | 0.00 | 0.00 | 57 | 1007.2 |
| 20260504202003 | 83 | 136 | 7.0 | 17.0 | 0.00 | 0.00 | 0.00 | 57 | 1007.4 |
| 20260504201503 | 83 | 129 | 7.0 | 16.0 | 0.00 | 0.00 | 0.00 | 58 | 1007.4 |
| 20260504201213 | 83 | 127 | 7.0 | 18.0 | 0.00 | 0.00 | 0.00 | 58 | 1007.6 |
| 20260504200503 | 82 | 136 | 8.0 | 18.0 | 0.00 | 0.00 | 0.00 | 58 | 1007.8 |
| 20260504200003 | 82 | 142 | 8.0 | 16.0 | 0.00 | 0.00 | 0.00 | 58 | 1007.9 |
| 20260504195714 | 82 | 137 | 8.0 | 15.0 | 0.00 | 0.00 | 0.00 | 57 | 1008.0 |
| 20260504195003 | 82 | 138 | 7.0 | 15.0 | 0.00 | 0.00 | 0.00 | 57 | 1008.2 |
| 20260504194503 | 83 | 139 | 7.0 | 14.0 | 0.00 | 0.00 | 0.00 | 57 | 1008.3 |
| 20260504194003 | 82 | 141 | 7.0 | 14.0 | 0.00 | 0.00 | 0.00 | 57 | 1008.4 |
| 20260504193503 | 82 | 135 | 6.0 | 15.0 | 0.00 | 0.00 | 0.00 | 57 | 1008.5 |
| 20260504193003 | 83 | 125 | 6.0 | 15.0 | 0.00 | 0.00 | 0.00 | 57 | 1008.5 |
| 20260504192503 | 83 | 135 | 5.0 | 12.0 | 0.00 | 0.00 | 0.00 | 58 | 1008.4 |
| 20260504192003 | 82 | 137 | 6.0 | 12.0 | 0.00 | 0.00 | 0.00 | 56 | 1008.4 |
| 20260504191714 | 82 | 133 | 6.0 | 12.0 | 0.00 | 0.00 | 0.00 | 57 | 1008.5 |
| 20260504191003 | 82 | 138 | 7.0 | 14.0 | 0.00 | 0.00 | 0.00 | 59 | 1008.6 |
| 20260504190503 | 81 | 133 | 8.0 | 18.0 | 0.00 | 0.00 | 0.00 | 58 | 1008.7 |
| 20260504190212 | 81 | 125 | 8.0 | 18.0 | 0.00 | 0.00 | 0.00 | 58 | 1008.8 |
| 20260504185503 | 82 | 122 | 7.0 | 14.0 | 0.00 | 0.00 | 0.00 | 58 | 1009.0 |
| 20260504185003 | 81 | 126 | 8.0 | 16.0 | 0.00 | 0.00 | 0.00 | 58 | 1009.1 |
| 20260504184503 | 82 | 137 | 6.0 | 16.0 | 0.00 | 0.00 | 0.00 | 56 | 1009.2 |
| 20260504184003 | 81 | 138 | 6.0 | 17.0 | 0.00 | 0.00 | 0.00 | 58 | 1009.2 |
| 20260504183503 | 81 | 136 | 6.0 | 17.0 | 0.00 | 0.00 | 0.00 | 57 | 1009.2 |
| 20260504183003 | 81 | 147 | 6.0 | 14.0 | 0.00 | 0.00 | 0.00 | 59 | 1009.3 |
| 20260504182503 | 81 | 159 | 6.0 | 14.0 | 0.00 | 0.00 | 0.00 | 58 | 1009.4 |
| 20260504182003 | 80 | 162 | 6.0 | 14.0 | 0.00 | 0.00 | 0.00 | 58 | 1009.5 |
| 20260504181503 | 81 | 153 | 6.0 | 14.0 | 0.00 | 0.00 | 0.00 | 58 | 1009.5 |
| 20260504181003 | 80 | 138 | 6.0 | 20.0 | 0.00 | 0.00 | 0.00 | 60 | 1009.6 |
| 20260504180713 | 80 | 139 | 7.0 | 20.0 | 0.00 | 0.00 | 0.00 | 58 | 1009.7 |
| 20260504180003 | 80 | 132 | 7.0 | 19.0 | 0.00 | 0.00 | 0.00 | 58 | 1009.9 |
| 20260504175503 | 80 | 127 | 6.0 | 15.0 | 0.00 | 0.00 | 0.00 | 59 | 1009.9 |
| 20260504175003 | 79 | 135 | 7.0 | 15.0 | 0.00 | 0.00 | 0.00 | 59 | 1010.1 |
| 20260504174503 | 79 | 135 | 6.0 | 14.0 | 0.00 | 0.00 | 0.00 | 61 | 1010.1 |
| 20260504174003 | 79 | 125 | 7.0 | 14.0 | 0.00 | 0.00 | 0.00 | 60 | 1010.5 |
| 20260504173503 | 79 | 122 | 6.0 | 13.0 | 0.00 | 0.00 | 0.00 | 60 | 1010.4 |
| 20260504173003 | 79 | 126 | 6.0 | 14.0 | 0.00 | 0.00 | 0.00 | 61 | 1010.5 |
| 20260504172503 | 78 | 127 | 6.0 | 14.0 | 0.00 | 0.00 | 0.00 | 60 | 1010.5 |
| 20260504172003 | 78 | 134 | 6.0 | 12.0 | 0.00 | 0.00 | 0.00 | 60 | 1010.5 |
| 20260504171503 | 78 | 142 | 6.0 | 15.0 | 0.00 | 0.00 | 0.00 | 61 | 1010.7 |
| 20260504171003 | 78 | 139 | 6.0 | 15.0 | 0.00 | 0.00 | 0.00 | 60 | 1010.8 |
| 20260504170503 | 78 | 123 | 6.0 | 13.0 | 0.00 | 0.00 | 0.00 | 60 | 1011.0 |
| 20260504151003 | 73 | 145 | 7.0 | 15.0 | 0.00 | 0.00 | 0.00 | 64 | 1011.8 |
| 20260504150503 | 73 | 138 | 7.0 | 14.0 | 0.00 | 0.00 | 0.00 | 64 | 1011.7 |
| 20260504141003 | 69 | 148 | 6.0 | 14.0 | 0.00 | 0.00 | 0.00 | 70 | 1011.9 |
| 20260504140714 | 69 | 151 | 6.0 | 14.0 | 0.00 | 0.00 | 0.00 | 71 | 1011.9 |
| 20260504140213 | 69 | 145 | 7.0 | 18.0 | 0.00 | 0.00 | 0.00 | 71 | 1012.1 |
| 20260504130503 | 65 | 134 | 4.0 | 10.0 | 0.00 | 0.00 | 0.00 | 75 | 1012.2 |
| 20260504110712 | 63 | 151 | 4.0 | 12.0 | 0.00 | 0.00 | 0.00 | 72 | 1011.9 |
| 20260504082003 | 65 | 135 | 2.0 | 6.0 | 0.00 | 0.00 | 0.00 | 64 | 1012.8 |
| 20260504081503 | 65 | 127 | 2.0 | 7.0 | 0.00 | 0.00 | 0.00 | 64 | 1012.8 |
| 20260504081003 | 65 | 131 | 3.0 | 11.0 | 0.00 | 0.00 | 0.00 | 63 | 1012.9 |
| 20260504080503 | 65 | 138 | 3.0 | 11.0 | 0.00 | 0.00 | 0.00 | 63 | 1013.0 |
| 20260504050503 | 68 | 135 | 1.0 | 4.0 | 0.00 | 0.00 | 0.00 | 58 | 1014.8 |
| 20260504050003 | 68 | 124 | 2.0 | 6.0 | 0.00 | 0.00 | 0.00 | 58 | 1014.9 |
| 20260504045503 | 68 | 129 | 2.0 | 6.0 | 0.00 | 0.00 | 0.00 | 58 | 1014.9 |
| 20260504045003 | 68 | 139 | 2.0 | 6.0 | 0.00 | 0.00 | 0.00 | 57 | 1015.0 |
| 20260504044503 | 68 | 143 | 2.0 | 6.0 | 0.00 | 0.00 | 0.00 | 57 | 1015.0 |
| 20260504044003 | 68 | 134 | 1.0 | 3.0 | 0.00 | 0.00 | 0.00 | 56 | 1015.0 |
| 20260504043503 | 69 | 113 | 1.0 | 6.0 | 0.00 | 0.00 | 0.00 | 56 | 1015.0 |
| 20260504043213 | 69 | 112 | 2.0 | 7.0 | 0.00 | 0.00 | 0.00 | 56 | 1015.0 |
| 20260504042503 | 69 | 129 | 2.0 | 7.0 | 0.00 | 0.00 | 0.00 | 55 | 1015.1 |
| 20260504042003 | 69 | 136 | 3.0 | 8.0 | 0.00 | 0.00 | 0.00 | 55 | 1015.2 |
| 20260504041503 | 69 | 133 | 3.0 | 9.0 | 0.00 | 0.00 | 0.00 | 54 | 1015.2 |
| 20260504041213 | 69 | 133 | 3.0 | 9.0 | 0.00 | 0.00 | 0.00 | 54 | 1015.2 |
| 20260504040503 | 70 | 137 | 2.0 | 8.0 | 0.00 | 0.00 | 0.00 | 54 | 1015.1 |
| 20260504040003 | 70 | 136 | 3.0 | 9.0 | 0.00 | 0.00 | 0.00 | 54 | 1015.2 |
| 20260504035503 | 70 | 131 | 3.0 | 9.0 | 0.00 | 0.00 | 0.00 | 53 | 1015.2 |
| 20260504035003 | 70 | 131 | 3.0 | 8.0 | 0.00 | 0.00 | 0.00 | 53 | 1015.1 |
| 20260504034503 | 70 | 126 | 3.0 | 9.0 | 0.00 | 0.00 | 0.00 | 53 | 1015.1 |
| 20260504034003 | 70 | 128 | 3.0 | 12.0 | 0.00 | 0.00 | 0.00 | 53 | 1015.1 |
| 20260504033503 | 70 | 132 | 3.0 | 12.0 | 0.00 | 0.00 | 0.00 | 52 | 1015.1 |
| 20260504033213 | 71 | 138 | 3.0 | 12.0 | 0.00 | 0.00 | 0.00 | 52 | 1015.1 |
| 20260504032503 | 71 | 147 | 3.0 | 9.0 | 0.00 | 0.00 | 0.00 | 52 | 1015.0 |
| 20260504032003 | 71 | 136 | 3.0 | 8.0 | 0.00 | 0.00 | 0.00 | 52 | 1015.1 |
| 20260504031503 | 71 | 131 | 3.0 | 10.0 | 0.00 | 0.00 | 0.00 | 51 | 1015.0 |
| 20260504031003 | 71 | 130 | 3.0 | 10.0 | 0.00 | 0.00 | 0.00 | 51 | 1015.1 |
| 20260504030503 | 71 | 136 | 3.0 | 9.0 | 0.00 | 0.00 | 0.00 | 51 | 1015.0 |
| 20260504030003 | 71 | 136 | 2.0 | 7.0 | 0.00 | 0.00 | 0.00 | 50 | 1015.0 |
| 20260504025503 | 71 | 125 | 3.0 | 8.0 | 0.00 | 0.00 | 0.00 | 50 | 1014.9 |
| 20260504025003 | 72 | 125 | 3.0 | 8.0 | 0.00 | 0.00 | 0.00 | 49 | 1014.9 |
| 20260504024503 | 72 | 126 | 3.0 | 8.0 | 0.00 | 0.00 | 0.00 | 49 | 1014.9 |
| 20260504024213 | 72 | 123 | 3.0 | 8.0 | 0.00 | 0.00 | 0.00 | 49 | 1014.9 |
| 20260504023503 | 72 | 131 | 3.0 | 8.0 | 0.00 | 0.00 | 0.00 | 48 | 1014.8 |
| 20260504023003 | 72 | 129 | 3.0 | 7.0 | 0.00 | 0.00 | 0.00 | 48 | 1014.8 |
| 20260504022503 | 73 | 122 | 3.0 | 9.0 | 0.00 | 0.00 | 0.00 | 47 | 1014.7 |
| 20260504022212 | 73 | 121 | 4.0 | 9.0 | 0.00 | 0.00 | 0.00 | 47 | 1014.8 |
| 20260504021503 | 73 | 124 | 3.0 | 9.0 | 0.00 | 0.00 | 0.00 | 47 | 1014.7 |
| 20260504021003 | 73 | 132 | 3.0 | 9.0 | 0.00 | 0.00 | 0.00 | 46 | 1014.7 |
| 20260504020503 | 73 | 131 | 3.0 | 8.0 | 0.00 | 0.00 | 0.00 | 46 | 1014.7 |
| 20260504020212 | 73 | 130 | 3.0 | 8.0 | 0.00 | 0.00 | 0.00 | 46 | 1014.8 |
| 20260504015503 | 74 | 130 | 3.0 | 10.0 | 0.00 | 0.00 | 0.00 | 45 | 1014.7 |
| 20260504015003 | 74 | 129 | 3.0 | 11.0 | 0.00 | 0.00 | 0.00 | 45 | 1014.7 |
| 20260504014713 | 74 | 127 | 4.0 | 11.0 | 0.00 | 0.00 | 0.00 | 44 | 1014.7 |
| 20260504014003 | 74 | 125 | 4.0 | 11.0 | 0.00 | 0.00 | 0.00 | 44 | 1014.7 |
| 20260504013503 | 74 | 126 | 3.0 | 9.0 | 0.00 | 0.00 | 0.00 | 44 | 1014.5 |
| 20260504013003 | 75 | 119 | 3.0 | 9.0 | 0.00 | 0.00 | 0.00 | 44 | 1014.4 |
| 20260504012713 | 75 | 122 | 3.0 | 9.0 | 0.00 | 0.00 | 0.00 | 43 | 1014.4 |
| 20260504012003 | 75 | 117 | 4.0 | 10.0 | 0.00 | 0.00 | 0.00 | 42 | 1014.4 |
| 20260504011503 | 76 | 119 | 4.0 | 10.0 | 0.00 | 0.00 | 0.00 | 42 | 1014.4 |
| 20260504011003 | 76 | 119 | 4.0 | 10.0 | 0.00 | 0.00 | 0.00 | 42 | 1014.4 |
| 20260504010503 | 76 | 119 | 4.0 | 9.0 | 0.00 | 0.00 | 0.00 | 41 | 1014.3 |
| 20260504010003 | 76 | 123 | 4.0 | 9.0 | 0.00 | 0.00 | 0.00 | 41 | 1014.3 |
| 20260504005503 | 76 | 123 | 4.0 | 10.0 | 0.00 | 0.00 | 0.00 | 40 | 1014.2 |
| 20260504005003 | 77 | 125 | 5.0 | 10.0 | 0.00 | 0.00 | 0.00 | 40 | 1014.2 |
| 20260504004713 | 77 | 127 | 5.0 | 12.0 | 0.00 | 0.00 | 0.00 | 39 | 1014.2 |
| 20260504004003 | 78 | 131 | 4.0 | 12.0 | 0.00 | 0.00 | 0.00 | 39 | 1014.2 |
| 20260504003503 | 78 | 127 | 4.0 | 12.0 | 0.00 | 0.00 | 0.00 | 39 | 1014.2 |
| 20260504003003 | 78 | 127 | 4.0 | 12.0 | 0.00 | 0.00 | 0.00 | 39 | 1014.2 |
| 20260504002713 | 78 | 128 | 4.0 | 12.0 | 0.00 | 0.00 | 0.00 | 39 | 1014.3 |
| 20260504002003 | 78 | 136 | 5.0 | 12.0 | 0.00 | 0.00 | 0.00 | 38 | 1014.3 |
| 20260504001503 | 79 | 141 | 5.0 | 12.0 | 0.00 | 0.00 | 0.00 | 37 | 1014.4 |
| 20260504001003 | 79 | 136 | 4.0 | 10.0 | 0.00 | 0.00 | 0.00 | 37 | 1014.4 |
| 20260504000712 | 79 | 133 | 4.0 | 10.0 | 0.00 | 0.00 | 0.00 | 37 | 1014.4 |
| 20260504000003 | 79 | 129 | 4.0 | 12.0 | 0.00 | 0.00 | 0.00 | 37 | 1014.4 |
| 20260503235503 | 80 | 142 | 5.0 | 12.0 | 0.00 | 0.00 | 0.00 | 36 | 1014.4 |
| 20260503235003 | 80 | 151 | 4.0 | 11.0 | 0.00 | 0.00 | 0.00 | 36 | 1014.6 |
| 20260503234503 | 80 | 159 | 3.0 | 8.0 | 0.00 | 0.00 | 0.00 | 37 | 1014.6 |
| 20260503234213 | 80 | 161 | 3.0 | 7.0 | 0.00 | 0.00 | 0.00 | 38 | 1014.6 |
| 20260503233503 | 80 | 148 | 4.0 | 9.0 | 0.00 | 0.00 | 0.00 | 36 | 1014.6 |
| 20260503233003 | 80 | 143 | 4.0 | 11.0 | 0.00 | 0.00 | 0.00 | 37 | 1014.8 |
| 20260503232712 | 81 | 146 | 4.0 | 11.0 | 0.00 | 0.00 | 0.00 | 37 | 1014.8 |
| 20260503232003 | 81 | 146 | 4.0 | 11.0 | 0.00 | 0.00 | 0.00 | 37 | 1014.8 |
| 20260503231503 | 81 | 140 | 4.0 | 13.0 | 0.00 | 0.00 | 0.00 | 37 | 1014.8 |
| 20260503231003 | 82 | 144 | 4.0 | 13.0 | 0.00 | 0.00 | 0.00 | 35 | 1014.8 |
| 20260503230712 | 82 | 152 | 4.0 | 11.0 | 0.00 | 0.00 | 0.00 | 36 | 1014.9 |
| 20260503230003 | 82 | 171 | 3.0 | 8.0 | 0.00 | 0.00 | 0.00 | 36 | 1015.0 |
| 20260503225503 | 82 | 167 | 3.0 | 9.0 | 0.00 | 0.00 | 0.00 | 36 | 1015.0 |
| 20260503225003 | 81 | 133 | 4.0 | 9.0 | 0.00 | 0.00 | 0.00 | 37 | 1015.0 |
| 20260503224503 | 81 | 118 | 5.0 | 12.0 | 0.00 | 0.00 | 0.00 | 36 | 1015.0 |
| 20260503224213 | 82 | 113 | 5.0 | 12.0 | 0.00 | 0.00 | 0.00 | 35 | 1015.0 |
| 20260503223503 | 82 | 140 | 4.0 | 12.0 | 0.00 | 0.00 | 0.00 | 35 | 1015.1 |
| 20260503223003 | 83 | 149 | 3.0 | 12.0 | 0.00 | 0.00 | 0.00 | 35 | 1015.1 |
| 20260503222503 | 83 | 149 | 3.0 | 11.0 | 0.00 | 0.00 | 0.00 | 36 | 1015.1 |
| 20260503222003 | 82 | 146 | 3.0 | 11.0 | 0.00 | 0.00 | 0.00 | 35 | 1015.2 |
| 20260503221503 | 82 | 131 | 3.0 | 8.0 | 0.00 | 0.00 | 0.00 | 35 | 1015.3 |
| 20260503221003 | 82 | 142 | 3.0 | 9.0 | 0.00 | 0.00 | 0.00 | 34 | 1015.4 |
| 20260503220503 | 83 | 169 | 3.0 | 10.0 | 0.00 | 0.00 | 0.00 | 34 | 1015.4 |
| 20260503220003 | 83 | 151 | 4.0 | 11.0 | 0.00 | 0.00 | 0.00 | 34 | 1015.4 |
| 20260503215503 | 83 | 131 | 5.0 | 11.0 | 0.00 | 0.00 | 0.00 | 34 | 1015.5 |
| 20260503215003 | 84 | 133 | 3.0 | 10.0 | 0.00 | 0.00 | 0.00 | 35 | 1015.4 |
| 20260503214503 | 83 | 126 | 4.0 | 13.0 | 0.00 | 0.00 | 0.00 | 34 | 1015.5 |
| 20260503214212 | 83 | 130 | 4.0 | 13.0 | 0.00 | 0.00 | 0.00 | 34 | 1015.6 |
| 20260503213503 | 84 | 152 | 4.0 | 10.0 | 0.00 | 0.00 | 0.00 | 34 | 1015.7 |
| 20260503213003 | 84 | 136 | 4.0 | 9.0 | 0.00 | 0.00 | 0.00 | 34 | 1015.8 |
| 20260503212503 | 84 | 130 | 5.0 | 10.0 | 0.00 | 0.00 | 0.00 | 35 | 1015.9 |